Regional Weather Roundup
Issued by NWS

Home | Current Version | Previous Version | Text Only | Print | Product List | Glossary Off
Versions: 1 2 3 4 5 6 7 8 9 10 11 12 13 14 15 16 17 18 19 20 21 22 23 24 25 26 27 28 29 30 31 32 33 34 35 36 37 38 39 40 41 42 43 44 45 46 47 48 49 50

000
ASUS43 KLSX 221610
RWRMO

WEATHER SUMMARY FOR MISSOURI
NATIONAL WEATHER SERVICE SPRINGFIELD MO
1000 AM CST WED FEB 22 2017

NOTE: "FAIR" INDICATES FEW OR NO CLOUDS BELOW 12,000 FEET WITH NO
       SIGNIFICANT WEATHER AND/OR OBSTRUCTIONS TO VISIBILITY.
       CURRENT SKY AND/OR WEATHER CONDITIONS ARE NOT AVAILABLE FOR
       CHILLICOTHE AND FARMINGTON.

MOZ001>031-035>038-043-044-053-054-221700-
...NORTHERN AND WESTERN MISSOURI...

CITY           SKY/WX    TMP DP  RH WIND       PRES   REMARKS
KANSAS CTY INT PTSUNNY   64  41  42 S15       29.73F
KANSAS C DTWN  SUNNY     67  42  40 SW16G30   29.73F
LEE`S SUMMIT   PTSUNNY   62  47  57 S20       29.77F
ST JOSEPH      SUNNY     63  36  36 SW16G23   29.71S
CHILLICOTHE      N/A     63  49  60 S13G21    29.75F
KIRKSVILLE     SUNNY     60  52  74 SW16      29.77F

$$
MOZ066>068-077>081-088>096-101>105-221700-
...SOUTHWEST MISSOURI...

CITY           SKY/WX    TMP DP  RH WIND       PRES   REMARKS
SPRINGFIELD    CLOUDY    55  55 100 S10       29.87S FOG
JOPLIN         MOSUNNY   57  57 100 S9        29.87S
BRANSON        CLOUDY    55  55 100 CALM      29.90R FOG

$$
MOZ032>034-039>042-045>050-055>058-069>072-221700-
...CENTRAL MISSOURI...

CITY           SKY/WX    TMP DP  RH WIND       PRES   REMARKS
COLUMBIA       FOG       55  55 100 S10       29.83S VSB 1/4
JEFFERSON CITY CLOUDY    54  54 100 S6        29.84F FOG
ROLLA          FOG       54  54 100 S10       29.84F VSB 1
SEDALIA        CLOUDY    57  55  93 S13       29.83F
WHITEMAN AFB   MOSUNNY   58  58 100 SW17      29.79F
WARRENSBURG    MOSUNNY   59  50  72 S14       29.80F
OSAGE BEACH    CLOUDY    54  54 100 SW9       29.87S FOG

$$
MOZ051-052-059>065-221700-
...EAST CENTRAL MISSOURI...

CITY           SKY/WX    TMP DP  RH WIND       PRES   REMARKS
ST LOUIS INTL  CLOUDY    57  54  89 SW10      29.85S FOG
SPIRIT OF STL  CLOUDY    56  55  97 SW8       29.85R FOG
ST CHARLES     CLOUDY    56  56 100 SW8       29.84S FOG

$$
MOZ072>076-082>087-097>100-106>115-221700-
...SOUTH CENTRAL AND SOUTHEAST MISSOURI...

CITY           SKY/WX    TMP DP  RH WIND       PRES   REMARKS
CAPE GIRARDEAU MOSUNNY   64  58  80 S7        29.88F
FARMINGTON     CLOUDY    62  55  77 SW9       29.87F
POPLAR BLUFF   PTSUNNY   64  58  80 SE6       29.87F
WEST PLAINS    PTSUNNY   60  55  83 S5        29.90F

$$




USA.gov is the U.S. government's official web portal to all federal, state and local government web resources and services.